This demonstration page uses our WeatherBlox Daily Observations layout. Learn more.

Left ArrowRight Arrow

Hourly Observations for November 20, 2022

Temp ( °F °C ) Dew Point ( °F °C ) Humidity (%) Winds ( mph kmh ) Pressure ( in mb ) Visibility ( mi km ) Precip ( " mm )
12:53 am 00:53 Clear 20 -6.7 14 -10 77 77 Calm 30.48 1032 10 16 0.00 0.00
1:53 am 01:53 Clear 20 -6.7 13 -10.6 74 74 Calm 30.48 1032 10 16 0.00 0.00
2:53 am 02:53 Clear 18 -7.8 12 -11.1 77 77 S 6 9 30.47 1032 10 16 0.00 0.00
3:53 am 03:53 Clear 20 -6.7 13 -10.6 74 74 SW 3 6 30.46 1032 10 16 0.00 0.00
4:53 am 04:53 Clear 18 -7.8 12 -11.1 77 77 S 6 9 30.44 1031 10 16 0.00 0.00
5:53 am 05:53 Clear 19 -7.2 12 -11.1 74 74 S 6 9 30.44 1031 10 16 0.00 0.00
6:53 am 06:53 Clear 18 -7.8 12 -11.1 77 77 S 7 11 30.44 1031 10 16 0.00 0.00
7:53 am 07:53 Sunny 20 -6.7 14 -10 77 77 S 6 9 30.45 1031 10 16 0.00 0.00
8:53 am 08:53 Sunny 28 -2.2 19 -7.2 68 68 S 9 15 30.45 1031 10 16 0.00 0.00
9:53 am 09:53 Sunny 35 1.7 19 -7.2 52 52 S 14 22 30.44 1031 10 16 0.00 0.00
10:53 am 10:53 Sunny 41 5 18 -7.8 39 39 SSW 15 24 30.42 1030 10 16 0.00 0.00
11:53 am 11:53 Sunny 45 7.2 18 -7.8 33 33 SSW 20 31 30.39 1029 10 16 0.00 0.00
12:53 pm 12:53 Sunny 48 8.9 18 -7.8 30 30 SSW 15 24 30.34 1027 10 16 0.00 0.00
1:53 pm 13:53 Sunny 49 9.4 18 -7.8 29 29 SSW 20 31 30.30 1026 10 16 0.00 0.00
2:53 pm 14:53 Sunny 49 9.4 18 -7.8 29 29 S 15 24 30.28 1025 10 16 0.00 0.00
3:53 pm 15:53 Sunny 49 9.4 18 -7.8 29 29 SSW 18 30 30.26 1025 10 16 0.00 0.00
4:53 pm 16:53 Sunny 46 7.8 19 -7.2 34 34 S 16 26 30.26 1025 10 16 0.00 0.00
5:53 pm 17:53 Clear 39 3.9 20 -6.7 46 46 S 10 17 30.27 1025 10 16 0.00 0.00
6:53 pm 18:53 Clear 38 3.3 21 -6.1 50 50 S 10 17 30.27 1025 10 16 0.00 0.00
7:53 pm 19:53 Clear 36 2.2 21 -6.1 54 54 S 10 17 30.27 1025 10 16 0.00 0.00
8:53 pm 20:53 Clear 35 1.7 21 -6.1 56 56 S 12 19 30.27 1025 10 16 0.00 0.00
9:53 pm 21:53 Clear 33 0.6 20 -6.7 58 58 S 9 15 30.27 1025 10 16 0.00 0.00
10:53 pm 22:53 Clear 29 -1.7 20 -6.7 69 69 S 8 13 30.27 1025 10 16 0.00 0.00
11:53 pm 23:53 Clear 30 -1.1 20 -6.7 66 66 S 8 13 30.26 1025 10 16 0.00 0.00

Powered by AerisWeather